User: anonymous   Login
Location: Unspecified
(39.1833°N, 0.0000°E)
Time: 21:11:56
(UTC+00:00)
Language:

First-Move - Orbit

View from above orbital plane
View from above orbital plane
View from above satellite
View from above satellite

Ground track
Ground track

The orbit data is extracted from the following two-line orbital elements,

1 39439U 13066Z   20027.45105780  .00000369  00000-0  51228-4 0  9995
2 39439  97.5698  33.7241 0065885  24.7473 335.6877 14.82015478333933
Epoch (UTC): 27 January 2020 10:49:31
Eccentricity: 0.0065885
inclination: 97.5698°
perigee height: 577 km
apogee height: 669 km
right ascension of ascending node: 33.7241°
argument of perigee: 24.7473°
revolutions per day: 14.82015478
mean anomaly at epoch: 335.6877°
orbit number at epoch: 33393

The dashed part of the orbit path shows where the satellite is in the earth's shadow,  

DLR